[[{"header":{"parameterUnit":"m.s-1","parameterCategory":1,"la1":30.2991,"la2":30.254,"lo1":-89.0895,"lo2":-89.0444,"dy":0.0017,"dx":0.0017,"nx":28,"ny":28,"refTime":"2024-02-14T09:00:00:Z","depth":0,"parameterNumber":2,"parameterNumberName":"U-component_of_WINDS"},"data":[0,0,0,0,0,0,0,0,0,0,0,0,0,0,0,0,0,0,0,0,0,0,0,0,0,0,0,0,0,0,0,0,0,0,0,0,0,0,0,0,0,0,0,0,0,0,0,0,0,0,0,0,0,0,0,0,0,0,-0.7003,-0.7004,0,-0.7067,-0.7067,-0.7068,-0.7058,-0.7057,-0.7055,-0.7054,-0.7122,-0.7124,-0.7127,0,0,0,0,0,0,0,0,0,0,0,0,0,-0.6874,-0.6877,-0.7003,-0.7004,-0.7005,-0.7067,-0.7067,-0.7068,-0.7058,-0.7057,-0.7055,-0.7054,-0.7121,-0.7124,-0.7127,0,0,0,0,0,0,0,0,0,0,0,0,0,-0.6933,-0.6878,-0.7003,-0.7007,-0.7008,-0.7066,-0.7067,-0.7068,-0.7058,-0.7056,-0.7055,-0.7053,-0.712,-0.7124,-0.7128,-0.7187,0,0,-0.7141,-0.7143,0,0,0,0,0,0,0,0,-0.693,-0.6938,-0.7006,-0.7007,-0.7008,-0.7052,-0.7047,-0.7108,-0.7059,-0.7039,-0.7054,-0.7052,-0.71,-0.7106,-0.7121,-0.719,-0.7193,-0.7141,-0.7144,-0.7145,-0.7147,0,0,0,0,0,0,0,-0.6926,-0.6935,-0.7028,-0.7007,-0.7008,-0.7006,-0.7013,-0.7058,-0.7078,-0.7041,-0.704,-0.7048,-0.71,-0.7117,-0.7123,-0.7194,-0.7141,-0.7145,-0.7147,-0.7149,-0.7314,-0.7316,0,0,0,0,0,0,-0.6921,-0.6932,-0.7026,-0.703,-0.6964,-0.701,-0.7017,-0.704,-0.7078,-0.7082,-0.7049,-0.7047,-0.7111,-0.7118,-0.7125,-0.7197,-0.7145,-0.7149,-0.7152,-0.7312,-0.7315,-0.7317,0,0,0,0,0,0,-0.6918,-0.6929,-0.7024,-0.6981,-0.6993,-0.7014,-0.7039,-0.7042,-0.7059,-0.7084,-0.7088,-0.7063,-0.711,-0.7119,-0.7172,-0.7199,-0.7151,-0.7155,-0.731,-0.7313,-0.7316,-0.7341,0,0,0,0,0,0,-0.6914,-0.6928,-0.6951,-0.6982,-0.6995,-0.7069,-0.7041,-0.7044,-0.7066,-0.7064,-0.7098,-0.7102,-0.7109,-0.7165,-0.7176,-0.7204,-0.7158,-0.7308,-0.7311,-0.7315,-0.7338,-0.7344,-0.735,0,0,0,0,0,-0.691,-0.6956,-0.6952,-0.6963,-0.7023,-0.707,-0.7078,-0.7085,-0.7068,-0.7091,-0.7107,-0.7101,-0.7194,-0.7171,-0.7182,-0.7212,-0.7306,-0.731,-0.7315,-0.7335,-0.7343,-0.7349,0,0,0,0,0,0,-0.6928,-0.696,-0.6956,-0.7013,-0.7039,-0.7068,-0.7097,-0.7094,-0.7126,-0.7122,-0.7131,-0.7138,-0.7191,-0.7207,-0.718,-0.7271,-0.7248,-0.7255,-0.7259,-0.7267,-0.7273,-0.7268,-0.7162,0,0,0,0,0,-0.6939,-0.6973,-0.6999,-0.7047,-0.706,-0.7077,-0.7097,-0.7101,-0.7128,-0.7139,-0.7159,-0.7186,-0.7222,-0.7245,-0.7279,-0.734,-0.7347,-0.7366,-0.7372,-0.7377,-0.7383,-0.7415,-0.7424,-0.733,-0.733,-0.733,0,0,-0.6961,-0.6983,-0.7004,-0.7052,-0.7072,-0.7108,-0.7086,-0.7125,-0.7152,-0.7145,-0.7196,-0.7211,-0.7242,-0.7299,-0.7324,-0.7313,-0.741,-0.7382,-0.7386,-0.7389,-0.7421,-0.7429,-0.7437,-0.7333,-0.7333,-0.7332,0,0,-0.7021,-0.7041,-0.7083,-0.7103,-0.7134,-0.7144,-0.7155,-0.7185,-0.7194,-0.7245,-0.724,-0.7273,-0.7334,-0.7356,-0.7375,-0.7442,-0.7438,-0.7453,-0.7485,-0.7517,-0.7524,-0.7531,-0.7555,-0.7563,-0.7459,-0.7459,-0.7459,0,-0.7045,-0.7099,-0.7105,-0.7145,-0.7166,-0.716,-0.7203,-0.7223,-0.7264,-0.7278,-0.7265,-0.7341,-0.7362,-0.7423,-0.7439,-0.7455,-0.7467,-0.745,-0.7523,-0.7529,-0.7536,-0.7559,-0.7568,-0.7461,-0.7461,-0.7461,-0.746,0,-0.7128,-0.7165,-0.7195,-0.7234,-0.7258,-0.7299,-0.7312,-0.7336,-0.7337,-0.7349,-0.74,-0.7424,-0.7463,-0.7478,-0.748,-0.754,-0.7532,-0.752,-0.7497,-0.7546,-0.7568,-0.7577,-0.7463,-0.7463,-0.7462,-0.7462,0,0,-0.7201,-0.7242,-0.7253,-0.727,-0.7303,-0.7333,-0.7374,-0.7411,-0.7431,-0.7459,-0.7494,-0.7545,-0.7535,-0.7557,-0.7561,-0.7589,-0.7641,-0.7574,-0.7575,-0.7586,-0.7708,-0.7716,-0.7726,-0.7637,-0.7639,-0.764,-0.7705,0,-0.7264,-0.7335,-0.7342,-0.7406,-0.7441,-0.7435,-0.7471,-0.7495,-0.7507,-0.7539,-0.7552,-0.7589,-0.7572,-0.7585,-0.7613,-0.7629,-0.7665,-0.7624,-0.767,-0.7672,-0.7663,-0.7738,-0.7747,-0.7807,-0.7714,-0.7715,-0.7716,0,-0.7347,-0.7377,-0.7444,-0.7472,-0.7487,-0.7519,-0.7553,-0.7583,-0.7611,-0.7618,-0.7642,-0.7642,-0.7684,-0.7659,-0.7717,-0.7689,-0.7708,-0.7719,-0.7721,-0.7726,-0.7697,-0.7745,-0.7826,-0.7835,-0.773,-0.7729,-0.7728,0,-0.7394,-0.7451,-0.7499,-0.7514,-0.7547,-0.757,-0.7585,-0.7611,-0.7633,-0.7663,-0.7677,-0.7712,-0.7731,-0.7759,-0.7768,-0.7749,-0.7827,-0.7802,-0.7834,-0.7834,-0.7851,-0.785,-0.7937,-0.7863,-0.7863,-0.7862,-0.7862,0,-0.7464,-0.7505,-0.752,-0.755,-0.7596,-0.7603,-0.7649,-0.7663,-0.7686,-0.7718,-0.7716,-0.7746,-0.7757,-0.779,-0.7798,-0.7845,-0.7854,-0.7861,-0.7862,-0.7861,-0.786,-0.7874,-0.787,-0.7865,-0.7864,-0.7864,-0.7863,0,-0.7524,-0.7536,-0.7587,-0.7615,-0.7623,-0.7656,-0.7679,-0.7708,-0.7719,-0.776,-0.777,-0.7788,-0.7826,-0.7838,-0.7884,-0.789,-0.7945,-0.7943,-0.7935,-0.7935,-0.7967,-0.7963,-0.8066,-0.8079,-0.7996,-0.7997,-0.7998,0,-0.7568,-0.76,-0.763,-0.7651,-0.7667,-0.7701,-0.7723,-0.7731,-0.7754,-0.7788,-0.7812,-0.785,-0.788,-0.7941,-0.7958,-0.7993,-0.7992,-0.8026,-0.7998,-0.7995,-0.7993,-0.7991,-0.7994,-0.8031,-0.8032,-0.8033,-0.8033,0,-0.7645,-0.7649,-0.768,-0.7713,-0.7739,-0.7766,-0.7792,-0.7809,-0.7821,-0.7847,-0.7885,-0.7909,-0.7955,-0.7993,-0.8028,-0.8044,-0.8041,-0.8042,-0.8051,-0.805,-0.8044,-0.8048,-0.795,-0.804,-0.8039,-0.8038,-0.8038,-0.8038,-0.7698,-0.7726,-0.7752,-0.7787,-0.7807,-0.7831,-0.7859,-0.7873,-0.7905,-0.7943,-0.7945,-0.7987,-0.8014,-0.8061,-0.8079,-0.8112,-0.8102,-0.8115,-0.8119,-0.8122,-0.8124,-0.8039,-0.8118,-0.8118,-0.8118,-0.8118,-0.8118,0,-0.7775,-0.7791,-0.7823,-0.7858,-0.7886,-0.7879,-0.7907,-0.7931,-0.7967,-0.7992,-0.8021,-0.8065,-0.8101,-0.8121,-0.8157,-0.8179,-0.8179,-0.8189,-0.8187,-0.8191,-0.8131,-0.8119,-0.8188,-0.8188,-0.8188,-0.8188,-0.8188,-0.8188,-0.7818,-0.7864,-0.7871,-0.7927,-0.7943,-0.7983,-0.8,-0.8022,-0.8042,-0.8091,-0.812,-0.8133,-0.8155,-0.8193,-0.8225,-0.823,-0.8244,-0.8255,-0.8259,-0.8202,-0.8195,-0.8188,-0.8177,-0.8258,-0.8258,-0.8316,-0.8316,-0.8317]},{"header":{"parameterUnit":"m.s-1","parameterCategory":1,"la1":30.2991,"la2":30.254,"lo1":-89.0895,"lo2":-89.0444,"dy":0.0017,"dx":0.0017,"nx":28,"ny":28,"refTime":"2024-02-14T09:00:00:Z","depth":0,"parameterNumber":3,"parameterNumberName":"V-component_of_WINDS"},"data":[0,0,0,0,0,0,0,0,0,0,0,0,0,0,0,0,0,0,0,0,0,0,0,0,0,0,0,0,0,0,0,0,0,0,0,0,0,0,0,0,0,0,0,0,0,0,0,0,0,0,0,0,0,0,0,0,0,0,-3.2192,-3.2193,0,-3.2279,-3.228,-3.2281,-3.226,-3.2258,-3.2256,-3.2255,-3.2342,-3.2346,-3.235,0,0,0,0,0,0,0,0,0,0,0,0,0,-3.2003,-3.2007,-3.2192,-3.2193,-3.2194,-3.2279,-3.228,-3.2281,-3.226,-3.2258,-3.2256,-3.2254,-3.2341,-3.2346,-3.235,0,0,0,0,0,0,0,0,0,0,0,0,0,-3.2087,-3.2008,-3.2191,-3.2194,-3.2195,-3.2279,-3.228,-3.2282,-3.2261,-3.2258,-3.2255,-3.2253,-3.2339,-3.2345,-3.2351,-3.2438,0,0,-3.2369,-3.2371,0,0,0,0,0,0,0,0,-3.2083,-3.2094,-3.2192,-3.2194,-3.2195,-3.2256,-3.2246,-3.2334,-3.2261,-3.2235,-3.2255,-3.2252,-3.2315,-3.2323,-3.2345,-3.2442,-3.2446,-3.2369,-3.2373,-3.2375,-3.2377,0,0,0,0,0,0,0,-3.2077,-3.209,-3.2226,-3.2194,-3.2195,-3.2189,-3.2198,-3.2263,-3.2289,-3.2237,-3.2236,-3.2247,-3.2316,-3.2339,-3.2347,-3.2447,-3.2369,-3.2374,-3.2378,-3.238,-3.2618,-3.2621,0,0,0,0,0,0,-3.207,-3.2086,-3.2223,-3.2229,-3.2131,-3.2195,-3.2205,-3.2239,-3.2288,-3.2293,-3.2249,-3.2246,-3.2331,-3.234,-3.235,-3.2454,-3.2375,-3.2381,-3.2384,-3.2615,-3.2619,-3.2622,0,0,0,0,0,0,-3.2066,-3.2083,-3.222,-3.2157,-3.2174,-3.2201,-3.2239,-3.2242,-3.2266,-3.2297,-3.2301,-3.2269,-3.2329,-3.2342,-3.2416,-3.2457,-3.2383,-3.2389,-3.2612,-3.2616,-3.262,-3.2664,0,0,0,0,0,0,-3.2061,-3.2082,-3.2116,-3.2158,-3.2178,-3.2286,-3.2242,-3.2246,-3.2276,-3.2273,-3.2316,-3.2321,-3.2328,-3.2407,-3.2422,-3.2464,-3.2393,-3.2609,-3.2614,-3.2619,-3.2659,-3.2669,-3.2678,0,0,0,0,0,-3.2054,-3.2124,-3.2117,-3.2134,-3.2221,-3.2288,-3.2299,-3.2307,-3.228,-3.2313,-3.2333,-3.2319,-3.245,-3.2415,-3.2431,-3.2475,-3.2606,-3.2612,-3.2619,-3.2655,-3.2667,-3.2678,0,0,0,0,0,0,-3.2085,-3.213,-3.2123,-3.2209,-3.2245,-3.2284,-3.2327,-3.232,-3.2364,-3.2358,-3.2365,-3.2375,-3.2451,-3.2471,-3.2431,-3.2562,-3.2524,-3.2534,-3.2546,-3.2558,-3.2567,-3.2561,-3.2398,0,0,0,0,0,-3.2102,-3.2154,-3.219,-3.2262,-3.228,-3.2301,-3.233,-3.2333,-3.237,-3.2385,-3.2411,-3.2447,-3.2496,-3.2528,-3.2575,-3.2662,-3.267,-3.27,-3.2709,-3.2717,-3.2725,-3.2771,-3.2784,-3.2643,-3.2643,-3.2642,0,0,-3.2138,-3.2168,-3.22,-3.2269,-3.2297,-3.235,-3.2314,-3.2371,-3.241,-3.2394,-3.2466,-3.2485,-3.2526,-3.2607,-3.2643,-3.2625,-3.2766,-3.2725,-3.2731,-3.2735,-3.2779,-3.2792,-3.2804,-3.2647,-3.2646,-3.2645,0,0,-3.2229,-3.2257,-3.232,-3.2349,-3.2393,-3.2406,-3.2421,-3.2462,-3.2474,-3.2546,-3.2535,-3.2581,-3.2666,-3.2695,-3.2721,-3.2822,-3.2811,-3.2837,-3.2886,-3.2931,-3.2942,-3.2952,-3.2987,-3.3,-3.2845,-3.2845,-3.2845,0,-3.2267,-3.2346,-3.2353,-3.2412,-3.2441,-3.243,-3.2493,-3.2521,-3.2577,-3.2597,-3.2577,-3.2682,-3.2709,-3.2796,-3.282,-3.2842,-3.2858,-3.2832,-3.294,-3.295,-3.2959,-3.2993,-3.3006,-3.2848,-3.2848,-3.2847,-3.2847,0,-3.2391,-3.2446,-3.2491,-3.2546,-3.2581,-3.2641,-3.2657,-3.2691,-3.269,-3.2705,-3.2778,-3.281,-3.2862,-3.2883,-3.2883,-3.297,-3.2957,-3.2938,-3.2901,-3.2976,-3.3007,-3.302,-3.2852,-3.2851,-3.285,-3.285,0,0,-3.2504,-3.2562,-3.2578,-3.2603,-3.2649,-3.2692,-3.2751,-3.2803,-3.2832,-3.2871,-3.292,-3.2991,-3.2974,-3.3003,-3.3006,-3.3046,-3.3123,-3.3022,-3.3023,-3.3039,-3.3219,-3.3232,-3.3247,-3.3115,-3.3118,-3.312,-3.3215,0,-3.2598,-3.2704,-3.2711,-3.2806,-3.2856,-3.2845,-3.2897,-3.293,-3.2946,-3.299,-3.3006,-3.3057,-3.303,-3.3048,-3.3086,-3.3105,-3.3159,-3.3098,-3.316,-3.3162,-3.315,-3.3264,-3.3279,-3.3367,-3.3228,-3.323,-3.3231,0,-3.2723,-3.2766,-3.2866,-3.2905,-3.2926,-3.2972,-3.302,-3.3063,-3.31,-3.3108,-3.3141,-3.3138,-3.3197,-3.3158,-3.3239,-3.3198,-3.3224,-3.3236,-3.324,-3.3246,-3.3201,-3.3272,-3.3396,-3.3409,-3.3251,-3.3249,-3.3248,0,-3.2795,-3.2878,-3.2948,-3.2969,-3.3016,-3.3049,-3.307,-3.3105,-3.3135,-3.3177,-3.3196,-3.3244,-3.327,-3.3306,-3.3316,-3.3286,-3.3396,-3.3358,-3.3404,-3.3404,-3.3427,-3.3426,-3.3556,-3.3445,-3.3445,-3.3445,-3.3444,0,-3.2899,-3.2961,-3.298,-3.3024,-3.3091,-3.3099,-3.3166,-3.3184,-3.3215,-3.3261,-3.3255,-3.3297,-3.3308,-3.3352,-3.336,-3.3425,-3.3437,-3.3445,-3.3446,-3.3445,-3.3444,-3.3462,-3.3456,-3.3448,-3.3447,-3.3447,-3.3446,0,-3.2991,-3.3007,-3.3082,-3.3121,-3.3132,-3.318,-3.3212,-3.3253,-3.3267,-3.3325,-3.3339,-3.3361,-3.3413,-3.3426,-3.3488,-3.3493,-3.357,-3.3566,-3.3558,-3.3557,-3.3602,-3.3598,-3.3748,-3.3768,-3.3644,-3.3646,-3.3647,0,-3.3057,-3.3103,-3.3147,-3.3177,-3.32,-3.3249,-3.328,-3.3289,-3.3321,-3.3367,-3.3402,-3.3453,-3.3494,-3.3578,-3.3598,-3.3645,-3.3642,-3.3691,-3.3649,-3.3646,-3.3641,-3.3638,-3.3643,-3.3699,-3.37,-3.3701,-3.3702,0,-3.3171,-3.3176,-3.3222,-3.327,-3.3307,-3.3345,-3.3381,-3.3406,-3.342,-3.3457,-3.351,-3.3542,-3.3605,-3.3656,-3.3703,-3.3723,-3.3715,-3.3716,-3.3729,-3.3728,-3.3721,-3.3725,-3.3579,-3.3712,-3.3711,-3.371,-3.371,-3.3709,-3.3251,-3.3292,-3.3328,-3.3379,-3.3407,-3.3441,-3.3481,-3.35,-3.3545,-3.3598,-3.36,-3.3657,-3.3692,-3.3755,-3.3778,-3.3822,-3.3807,-3.3826,-3.3831,-3.3835,-3.3839,-3.3714,-3.3831,-3.3831,-3.383,-3.383,-3.383,0,-3.3364,-3.3387,-3.3434,-3.3485,-3.3524,-3.3513,-3.3553,-3.3586,-3.3637,-3.3671,-3.3712,-3.3772,-3.3821,-3.3846,-3.3893,-3.3924,-3.3921,-3.3936,-3.3934,-3.3939,-3.385,-3.3834,-3.3938,-3.3938,-3.3938,-3.3938,-3.3938,-3.3938,-3.3428,-3.3496,-3.3506,-3.3587,-3.3609,-3.3666,-3.369,-3.372,-3.3747,-3.3815,-3.3856,-3.3872,-3.3901,-3.3951,-3.3995,-3.4001,-3.4018,-3.4035,-3.4039,-3.3956,-3.3945,-3.3934,-3.3919,-3.4039,-3.4039,-3.4124,-3.4124,-3.4125]}]]